Wetterdaten: Donnerstag, 08.01.2015
Datum Zeit Temperatur Luftfeuchte Luftdruck Regen Wind Richtung Richtung Taupunkt Windchill Windben
08.01.2015 00:02 -4,1 C 87 % 1028,7 hPa 0,0 l/m 0,0 km/h (0 Bft) O-NO 67 -5,9 C 0,0 C 0,0 km/h (0 Bft)
08.01.2015 00:07 -3,9 C 87 % 1028,7 hPa 0,0 l/m 0,0 km/h (0 Bft) O-NO 67 -5,7 C 0,0 C 0,0 km/h (0 Bft)
08.01.2015 00:12 -4,0 C 87 % 1028,7 hPa 0,0 l/m 0,0 km/h (0 Bft) O-NO 67 -5,8 C 0,0 C 0,0 km/h (0 Bft)
08.01.2015 00:17 -3,9 C 87 % 1028,7 hPa 0,0 l/m 0,0 km/h (0 Bft) O-NO 67 -5,7 C 0,0 C 0,0 km/h (0 Bft)
08.01.2015 00:22 -3,9 C 87 % 1028,7 hPa 0,0 l/m 0,0 km/h (0 Bft) O-NO 67 -5,7 C 0,0 C 0,0 km/h (0 Bft)
08.01.2015 00:27 -4,0 C 88 % 1028,7 hPa 0,0 l/m 0,0 km/h (0 Bft) O-NO 67 -5,7 C 0,0 C 0,0 km/h (0 Bft)
08.01.2015 00:32 -3,9 C 88 % 1028,7 hPa 0,0 l/m 0,0 km/h (0 Bft) O-NO 67 -5,6 C 0,0 C 0,0 km/h (0 Bft)
08.01.2015 00:37 -4,0 C 88 % 1028,5 hPa 0,0 l/m 0,0 km/h (0 Bft) O-NO 67 -5,7 C 0,0 C 0,0 km/h (0 Bft)
08.01.2015 00:42 -4,4 C 88 % 1028,5 hPa 0,0 l/m 0,0 km/h (0 Bft) O-NO 67 -6,1 C 0,0 C 0,0 km/h (0 Bft)
08.01.2015 00:47 -4,4 C 88 % 1028,5 hPa 0,0 l/m 0,0 km/h (0 Bft) O-NO 67 -6,1 C 0,0 C 0,0 km/h (0 Bft)
08.01.2015 00:52 -4,2 C 88 % 1028,5 hPa 0,0 l/m 0,0 km/h (0 Bft) O-NO 67 -5,9 C 0,0 C 0,0 km/h (0 Bft)
08.01.2015 00:57 -4,4 C 88 % 1028,3 hPa 0,0 l/m 0,0 km/h (0 Bft) O-NO 67 -6,1 C 0,0 C 0,0 km/h (0 Bft)
08.01.2015 01:02 -4,3 C 88 % 1028,3 hPa 0,0 l/m 0,0 km/h (0 Bft) O-NO 67 -6,0 C 0,0 C 0,0 km/h (0 Bft)
08.01.2015 01:07 -4,2 C 88 % 1028,3 hPa 0,0 l/m 0,0 km/h (0 Bft) O-NO 67 -5,9 C 0,0 C 0,0 km/h (0 Bft)
08.01.2015 01:12 -4,0 C 88 % 1028,3 hPa 0,0 l/m 0,0 km/h (0 Bft) O-NO 67 -5,7 C 0,0 C 0,0 km/h (0 Bft)
08.01.2015 01:17 -3,8 C 88 % 1028,0 hPa 0,0 l/m 0,0 km/h (0 Bft) O-NO 67 -5,5 C 0,0 C 0,0 km/h (0 Bft)
08.01.2015 01:22 -3,6 C 88 % 1028,0 hPa 0,0 l/m 0,0 km/h (0 Bft) O-NO 67 -5,3 C 0,0 C 0,0 km/h (0 Bft)
08.01.2015 01:27 -3,8 C 88 % 1028,0 hPa 0,0 l/m 0,0 km/h (0 Bft) O-NO 67 -5,5 C 0,0 C 0,0 km/h (0 Bft)
08.01.2015 01:32 -4,2 C 88 % 1028,0 hPa 0,0 l/m 0,0 km/h (0 Bft) O-NO 67 -5,9 C 0,0 C 0,0 km/h (0 Bft)
08.01.2015 01:37 -4,3 C 88 % 1028,2 hPa 0,0 l/m 0,0 km/h (0 Bft) O-NO 67 -6,0 C 0,0 C 0,0 km/h (0 Bft)
08.01.2015 01:42 -4,2 C 88 % 1028,2 hPa 0,0 l/m 0,0 km/h (0 Bft) O-NO 67 -5,9 C 0,0 C 0,0 km/h (0 Bft)
08.01.2015 01:47 -4,4 C 88 % 1028,2 hPa 0,0 l/m 0,0 km/h (0 Bft) O-NO 67 -6,1 C 0,0 C 0,0 km/h (0 Bft)
08.01.2015 01:52 -4,4 C 88 % 1028,2 hPa 0,0 l/m 0,0 km/h (0 Bft) O-NO 67 -6,1 C 0,0 C 0,0 km/h (0 Bft)
08.01.2015 01:57 -4,5 C 88 % 1028,2 hPa 0,0 l/m 0,0 km/h (0 Bft) O-NO 67 -6,2 C 0,0 C 0,0 km/h (0 Bft)
08.01.2015 02:02 -4,4 C 88 % 1028,2 hPa 0,0 l/m 0,0 km/h (0 Bft) O-NO 67 -6,1 C 0,0 C 0,0 km/h (0 Bft)
08.01.2015 02:07 -4,7 C 88 % 1028,2 hPa 0,0 l/m 0,0 km/h (0 Bft) O-NO 67 -6,4 C 0,0 C 0,0 km/h (0 Bft)
08.01.2015 02:12 -4,7 C 88 % 1028,2 hPa 0,0 l/m 0,0 km/h (0 Bft) O-NO 67 -6,4 C 0,0 C 0,0 km/h (0 Bft)
08.01.2015 02:17 -4,6 C 88 % 1028,3 hPa 0,0 l/m 0,0 km/h (0 Bft) O-NO 67 -6,3 C 0,0 C 0,0 km/h (0 Bft)
08.01.2015 02:22 -4,5 C 88 % 1028,3 hPa 0,0 l/m 0,0 km/h (0 Bft) O-NO 67 -6,2 C 0,0 C 0,0 km/h (0 Bft)
08.01.2015 02:27 -4,6 C 88 % 1028,3 hPa 0,0 l/m 0,0 km/h (0 Bft) O-NO 67 -6,3 C 0,0 C 0,0 km/h (0 Bft)
08.01.2015 02:32 -4,2 C 88 % 1028,3 hPa 0,0 l/m 0,0 km/h (0 Bft) O-NO 67 -5,9 C 0,0 C 0,0 km/h (0 Bft)
08.01.2015 02:37 -4,4 C 88 % 1028,4 hPa 0,0 l/m 0,0 km/h (0 Bft) O-NO 67 -6,1 C 0,0 C 0,0 km/h (0 Bft)
08.01.2015 02:42 -4,6 C 88 % 1028,4 hPa 0,0 l/m 0,0 km/h (0 Bft) O-NO 67 -6,3 C 0,0 C 0,0 km/h (0 Bft)
08.01.2015 02:47 -4,4 C 88 % 1028,4 hPa 0,0 l/m 0,0 km/h (0 Bft) O-NO 67 -6,1 C 0,0 C 0,0 km/h (0 Bft)
08.01.2015 02:52 -4,4 C 88 % 1028,4 hPa 0,0 l/m 0,0 km/h (0 Bft) O-NO 67 -6,1 C 0,0 C 0,0 km/h (0 Bft)
08.01.2015 02:57 -4,3 C 88 % 1028,4 hPa 0,0 l/m 0,0 km/h (0 Bft) O-NO 67 -6,0 C 0,0 C 0,0 km/h (0 Bft)
08.01.2015 03:02 -4,3 C 88 % 1028,4 hPa 0,0 l/m 0,0 km/h (0 Bft) O-NO 67 -6,0 C 0,0 C 0,0 km/h (0 Bft)
08.01.2015 03:07 -4,4 C 88 % 1028,4 hPa 0,0 l/m 0,0 km/h (0 Bft) O-NO 67 -6,1 C 0,0 C 0,0 km/h (0 Bft)
08.01.2015 03:12 -4,5 C 88 % 1028,4 hPa 0,0 l/m 0,0 km/h (0 Bft) O-NO 67 -6,2 C 0,0 C 0,0 km/h (0 Bft)
08.01.2015 03:17 -4,6 C 88 % 1028,4 hPa 0,0 l/m 0,0 km/h (0 Bft) O-NO 67 -6,3 C 0,0 C 0,0 km/h (0 Bft)
08.01.2015 03:22 -4,5 C 88 % 1028,4 hPa 0,0 l/m 0,0 km/h (0 Bft) O-NO 67 -6,2 C 0,0 C 0,0 km/h (0 Bft)
08.01.2015 03:27 -4,5 C 88 % 1028,4 hPa 0,0 l/m 0,0 km/h (0 Bft) O-NO 67 -6,2 C 0,0 C 0,0 km/h (0 Bft)
08.01.2015 03:32 -4,4 C 88 % 1028,4 hPa 0,0 l/m 0,0 km/h (0 Bft) O-NO 67 -6,1 C 0,0 C 0,0 km/h (0 Bft)
08.01.2015 03:37 -4,6 C 88 % 1028,3 hPa 0,0 l/m 0,0 km/h (0 Bft) O-NO 67 -6,3 C 0,0 C 0,0 km/h (0 Bft)
08.01.2015 03:42 -4,5 C 88 % 1028,3 hPa 0,0 l/m 0,0 km/h (0 Bft) O-NO 67 -6,2 C 0,0 C 0,0 km/h (0 Bft)
08.01.2015 03:47 -4,3 C 88 % 1028,3 hPa 0,0 l/m 0,0 km/h (0 Bft) O-NO 67 -6,0 C 0,0 C 0,0 km/h (0 Bft)
08.01.2015 03:52 -4,3 C 88 % 1028,3 hPa 0,0 l/m 0,0 km/h (0 Bft) O-NO 67 -6,0 C 0,0 C 0,0 km/h (0 Bft)
08.01.2015 03:57 -4,4 C 88 % 1028,5 hPa 0,0 l/m 0,0 km/h (0 Bft) O-NO 67 -6,1 C 0,0 C 0,0 km/h (0 Bft)
08.01.2015 04:02 -4,4 C 88 % 1028,5 hPa 0,0 l/m 0,0 km/h (0 Bft) O-NO 67 -6,1 C 0,0 C 0,0 km/h (0 Bft)
08.01.2015 04:07 -4,3 C 88 % 1028,5 hPa 0,0 l/m 0,0 km/h (0 Bft) O-NO 67 -6,0 C 0,0 C 0,0 km/h (0 Bft)
08.01.2015 04:12 -4,3 C 88 % 1028,5 hPa 0,0 l/m 0,0 km/h (0 Bft) O-NO 67 -6,0 C 0,0 C 0,0 km/h (0 Bft)
08.01.2015 04:17 -4,0 C 89 % 1028,4 hPa 0,0 l/m 0,0 km/h (0 Bft) O-NO 67 -5,5 C 0,0 C 0,0 km/h (0 Bft)
08.01.2015 04:22 -4,2 C 89 % 1028,4 hPa 0,0 l/m 0,0 km/h (0 Bft) O-NO 67 -5,7 C 0,0 C 0,0 km/h (0 Bft)
08.01.2015 04:27 -4,2 C 89 % 1028,4 hPa 0,0 l/m 0,0 km/h (0 Bft) O-NO 67 -5,7 C 0,0 C 0,0 km/h (0 Bft)
08.01.2015 04:32 -4,2 C 89 % 1028,4 hPa 0,0 l/m 0,0 km/h (0 Bft) O-NO 67 -5,7 C 0,0 C 0,0 km/h (0 Bft)
08.01.2015 04:37 -4,3 C 89 % 1028,2 hPa 0,0 l/m 0,0 km/h (0 Bft) O-NO 67 -5,8 C 0,0 C 0,0 km/h (0 Bft)
08.01.2015 04:42 -4,3 C 89 % 1028,2 hPa 0,0 l/m 0,0 km/h (0 Bft) O-NO 67 -5,8 C 0,0 C 0,0 km/h (0 Bft)
08.01.2015 04:47 -4,2 C 89 % 1028,2 hPa 0,0 l/m 0,0 km/h (0 Bft) O-NO 67 -5,7 C 0,0 C 0,0 km/h (0 Bft)
08.01.2015 04:52 -4,4 C 88 % 1028,2 hPa 0,0 l/m 0,0 km/h (0 Bft) O-NO 67 -6,1 C 0,0 C 0,0 km/h (0 Bft)
08.01.2015 04:57 -4,4 C 88 % 1027,7 hPa 0,0 l/m 0,0 km/h (0 Bft) O-SO 112 -6,1 C -4,3 C 0,0 km/h (0 Bft)
08.01.2015 05:02 -4,4 C 88 % 1027,7 hPa 0,0 l/m 0,0 km/h (0 Bft) O-SO 112 -6,1 C -4,3 C 0,0 km/h (0 Bft)
08.01.2015 05:07 -4,4 C 88 % 1027,7 hPa 0,0 l/m 0,0 km/h (0 Bft) O-SO 112 -6,1 C -4,3 C 0,0 km/h (0 Bft)
08.01.2015 05:12 -4,4 C 88 % 1027,7 hPa 0,0 l/m 0,0 km/h (0 Bft) O-SO 112 -6,1 C -4,3 C 0,0 km/h (0 Bft)
08.01.2015 05:17 -4,4 C 88 % 1027,9 hPa 0,0 l/m 0,0 km/h (0 Bft) O-SO 112 -6,1 C -4,3 C 0,0 km/h (0 Bft)
08.01.2015 05:22 -4,3 C 88 % 1027,9 hPa 0,0 l/m 0,0 km/h (0 Bft) O-SO 112 -6,0 C -4,3 C 0,0 km/h (0 Bft)
08.01.2015 05:27 -4,4 C 88 % 1027,9 hPa 0,0 l/m 0,0 km/h (0 Bft) O-SO 112 -6,1 C -4,3 C 0,0 km/h (0 Bft)
08.01.2015 05:32 -4,6 C 88 % 1027,9 hPa 0,0 l/m 0,0 km/h (0 Bft) O-SO 112 -6,3 C -4,3 C 0,0 km/h (0 Bft)
08.01.2015 05:37 -4,3 C 88 % 1027,9 hPa 0,0 l/m 0,0 km/h (0 Bft) O-SO 112 -6,0 C -4,3 C 0,0 km/h (0 Bft)
08.01.2015 05:42 -4,0 C 89 % 1027,9 hPa 0,0 l/m 0,0 km/h (0 Bft) O-SO 112 -5,5 C -4,3 C 0,0 km/h (0 Bft)
08.01.2015 05:47 -4,1 C 89 % 1027,9 hPa 0,0 l/m 0,0 km/h (0 Bft) O-SO 112 -5,6 C -4,3 C 0,0 km/h (0 Bft)
08.01.2015 05:52 -4,4 C 89 % 1027,9 hPa 0,0 l/m 0,0 km/h (0 Bft) O-SO 112 -5,9 C -4,3 C 0,0 km/h (0 Bft)
08.01.2015 05:57 -3,9 C 89 % 1027,7 hPa 0,0 l/m 0,0 km/h (0 Bft) O-SO 112 -5,4 C -4,3 C 0,0 km/h (0 Bft)
08.01.2015 06:02 -4,2 C 89 % 1027,7 hPa 0,0 l/m 0,0 km/h (0 Bft) O-SO 112 -5,7 C -4,3 C 0,0 km/h (0 Bft)
08.01.2015 06:07 -4,2 C 89 % 1027,7 hPa 0,0 l/m 0,0 km/h (0 Bft) O-SO 112 -5,7 C -4,3 C 0,0 km/h (0 Bft)
08.01.2015 06:12 -4,2 C 89 % 1027,7 hPa 0,0 l/m 0,0 km/h (0 Bft) O-SO 112 -5,7 C -4,3 C 0,0 km/h (0 Bft)
08.01.2015 06:17 -4,2 C 89 % 1028,0 hPa 0,0 l/m 0,0 km/h (0 Bft) O-SO 112 -5,7 C -4,3 C 0,0 km/h (0 Bft)
08.01.2015 06:22 -4,0 C 89 % 1028,0 hPa 0,0 l/m 0,0 km/h (0 Bft) O-SO 112 -5,5 C -4,3 C 0,0 km/h (0 Bft)
08.01.2015 06:27 -4,0 C 89 % 1028,0 hPa 0,0 l/m 0,0 km/h (0 Bft) O-SO 112 -5,5 C -4,3 C 0,0 km/h (0 Bft)
08.01.2015 06:32 -3,7 C 89 % 1028,0 hPa 0,0 l/m 0,0 km/h (0 Bft) O-SO 112 -5,2 C -4,3 C 0,0 km/h (0 Bft)
08.01.2015 06:37 -3,8 C 89 % 1027,8 hPa 0,0 l/m 0,0 km/h (0 Bft) O-SO 112 -5,3 C -4,3 C 0,0 km/h (0 Bft)
08.01.2015 06:42 -3,8 C 89 % 1027,8 hPa 0,0 l/m 0,0 km/h (0 Bft) O-SO 112 -5,3 C -4,3 C 0,0 km/h (0 Bft)
08.01.2015 06:47 -3,8 C 89 % 1027,8 hPa 0,0 l/m 0,0 km/h (0 Bft) O-SO 112 -5,3 C -4,3 C 0,0 km/h (0 Bft)
08.01.2015 06:52 -3,8 C 89 % 1027,8 hPa 0,0 l/m 0,0 km/h (0 Bft) O-SO 112 -5,3 C -4,3 C 0,0 km/h (0 Bft)
08.01.2015 06:57 -3,8 C 89 % 1027,9 hPa 0,0 l/m 0,0 km/h (0 Bft) O-SO 112 -5,3 C -4,3 C 0,0 km/h (0 Bft)
08.01.2015 07:02 -3,7 C 89 % 1027,9 hPa 0,0 l/m 0,0 km/h (0 Bft) O-SO 112 -5,2 C -4,3 C 0,0 km/h (0 Bft)
08.01.2015 07:07 -3,6 C 89 % 1027,9 hPa 0,0 l/m 0,0 km/h (0 Bft) O-SO 112 -5,1 C -4,3 C 0,0 km/h (0 Bft)
08.01.2015 07:12 -3,4 C 89 % 1027,9 hPa 0,0 l/m 0,0 km/h (0 Bft) O-SO 112 -4,9 C -4,3 C 0,0 km/h (0 Bft)
08.01.2015 07:17 -3,5 C 89 % 1027,9 hPa 0,0 l/m 0,0 km/h (0 Bft) O-SO 112 -5,0 C -4,3 C 0,0 km/h (0 Bft)
08.01.2015 07:22 -3,5 C 89 % 1027,9 hPa 0,0 l/m 0,0 km/h (0 Bft) O-SO 112 -5,0 C -4,3 C 0,0 km/h (0 Bft)
08.01.2015 07:27 -3,4 C 89 % 1027,9 hPa 0,0 l/m 0,0 km/h (0 Bft) O-SO 112 -4,9 C -4,3 C 0,0 km/h (0 Bft)
08.01.2015 07:32 -3,3 C 89 % 1027,9 hPa 0,0 l/m 0,0 km/h (0 Bft) O-SO 112 -4,8 C -4,3 C 0,0 km/h (0 Bft)
08.01.2015 07:37 -3,6 C 89 % 1027,9 hPa 0,0 l/m 0,0 km/h (0 Bft) O-SO 112 -5,1 C -4,3 C 0,0 km/h (0 Bft)
08.01.2015 07:42 -3,6 C 89 % 1027,9 hPa 0,0 l/m 0,0 km/h (0 Bft) O-SO 112 -5,1 C -4,3 C 0,0 km/h (0 Bft)
08.01.2015 07:47 -2,7 C 89 % 1027,9 hPa 0,0 l/m 0,0 km/h (0 Bft) O-SO 112 -4,3 C -4,3 C 0,0 km/h (0 Bft)
08.01.2015 07:52 -3,1 C 89 % 1027,9 hPa 0,0 l/m 0,0 km/h (0 Bft) O-SO 112 -4,6 C -4,3 C 0,0 km/h (0 Bft)
08.01.2015 07:57 -1,9 C 90 % 1027,8 hPa 0,0 l/m 0,0 km/h (0 Bft) O-SO 112 -3,3 C -4,3 C 0,0 km/h (0 Bft)
08.01.2015 08:02 -2,5 C 90 % 1027,8 hPa 0,0 l/m 0,0 km/h (0 Bft) O-SO 112 -3,9 C -4,3 C 0,0 km/h (0 Bft)
08.01.2015 08:07 -2,5 C 90 % 1027,8 hPa 0,0 l/m 0,0 km/h (0 Bft) O-SO 112 -3,9 C -4,3 C 0,0 km/h (0 Bft)
08.01.2015 08:12 -2,4 C 90 % 1027,8 hPa 0,0 l/m 0,0 km/h (0 Bft) O-SO 112 -3,8 C -4,3 C 0,0 km/h (0 Bft)
08.01.2015 08:17 -2,4 C 90 % 1028,3 hPa 0,0 l/m 0,0 km/h (0 Bft) O-SO 112 -3,8 C -4,3 C 0,0 km/h (0 Bft)
08.01.2015 08:22 -1,9 C 90 % 1028,3 hPa 0,0 l/m 0,0 km/h (0 Bft) O-SO 112 -3,3 C -4,3 C 0,0 km/h (0 Bft)
08.01.2015 08:27 -1,7 C 90 % 1028,3 hPa 0,0 l/m 0,0 km/h (0 Bft) O-SO 112 -3,1 C -4,3 C 0,0 km/h (0 Bft)
08.01.2015 08:32 -1,3 C 91 % 1028,3 hPa 0,0 l/m 0,0 km/h (0 Bft) O-SO 112 -2,6 C -4,3 C 0,0 km/h (0 Bft)
08.01.2015 08:37 -1,6 C 90 % 1028,7 hPa 0,0 l/m 0,0 km/h (0 Bft) O-SO 112 -3,0 C -4,3 C 0,0 km/h (0 Bft)
08.01.2015 08:42 -0,9 C 91 % 1028,7 hPa 0,0 l/m 0,0 km/h (0 Bft) O-SO 112 -2,2 C -4,3 C 0,0 km/h (0 Bft)
08.01.2015 08:47 -1,1 C 90 % 1028,7 hPa 0,0 l/m 0,0 km/h (0 Bft) O-SO 112 -2,5 C -4,3 C 0,0 km/h (0 Bft)
08.01.2015 08:52 -0,5 C 91 % 1028,7 hPa 0,0 l/m 0,0 km/h (0 Bft) O-SO 112 -1,8 C -4,3 C 0,0 km/h (0 Bft)
08.01.2015 08:57 0,3 C 91 % 1028,6 hPa 0,0 l/m 0,0 km/h (0 Bft) O-SO 112 -1,0 C -4,3 C 0,0 km/h (0 Bft)
08.01.2015 09:02 0,2 C 91 % 1028,6 hPa 0,0 l/m 0,0 km/h (0 Bft) O-SO 112 -1,1 C -4,3 C 0,0 km/h (0 Bft)
08.01.2015 09:07 0,3 C 91 % 1028,6 hPa 0,0 l/m 0,0 km/h (0 Bft) O-SO 112 -1,0 C -4,3 C 0,0 km/h (0 Bft)
08.01.2015 09:12 0,7 C 91 % 1028,6 hPa 0,0 l/m 0,0 km/h (0 Bft) O-SO 112 -0,6 C -4,3 C 0,0 km/h (0 Bft)
08.01.2015 09:17 1,0 C 91 % 1028,8 hPa 0,0 l/m 0,0 km/h (0 Bft) O-SO 112 -0,3 C -4,3 C 0,0 km/h (0 Bft)
08.01.2015 09:22 2,4 C 89 % 1028,8 hPa 0,0 l/m 0,0 km/h (0 Bft) O-SO 112 0,8 C -4,3 C 0,0 km/h (0 Bft)
08.01.2015 09:27 2,9 C 88 % 1028,8 hPa 0,0 l/m 0,0 km/h (0 Bft) O-SO 112 1,1 C -4,3 C 0,0 km/h (0 Bft)
08.01.2015 09:32 3,1 C 85 % 1028,8 hPa 0,0 l/m 0,0 km/h (0 Bft) O-SO 112 0,8 C -4,3 C 0,0 km/h (0 Bft)
08.01.2015 09:37 3,4 C 82 % 1028,6 hPa 0,0 l/m 0,0 km/h (0 Bft) O-SO 112 0,6 C -4,3 C 0,0 km/h (0 Bft)
08.01.2015 09:42 3,7 C 77 % 1028,6 hPa 0,0 l/m 0,0 km/h (0 Bft) O-SO 112 0,1 C -4,3 C 0,0 km/h (0 Bft)
08.01.2015 09:47 3,9 C 75 % 1028,6 hPa 0,0 l/m 0,0 km/h (0 Bft) O-SO 112 -0,1 C -4,3 C 0,0 km/h (0 Bft)
08.01.2015 09:52 4,1 C 73 % 1028,6 hPa 0,0 l/m 0,0 km/h (0 Bft) O-SO 112 -0,3 C -4,3 C 0,0 km/h (0 Bft)
08.01.2015 09:57 4,1 C 71 % 1028,8 hPa 0,0 l/m 0,0 km/h (0 Bft) O-SO 112 -0,7 C -4,3 C 0,0 km/h (0 Bft)
08.01.2015 10:02 4,2 C 69 % 1028,8 hPa 0,0 l/m 0,0 km/h (0 Bft) O-SO 112 -1,0 C -4,3 C 0,0 km/h (0 Bft)
08.01.2015 10:07 4,3 C 68 % 1028,8 hPa 0,0 l/m 0,0 km/h (0 Bft) O-SO 112 -1,1 C -4,3 C 0,0 km/h (0 Bft)
08.01.2015 10:12 4,5 C 66 % 1028,8 hPa 0,0 l/m 0,0 km/h (0 Bft) O-SO 112 -1,3 C -4,3 C 0,0 km/h (0 Bft)
08.01.2015 10:17 4,6 C 66 % 1028,8 hPa 0,0 l/m 0,0 km/h (0 Bft) O-SO 112 -1,2 C -4,3 C 0,0 km/h (0 Bft)
08.01.2015 10:22 4,8 C 65 % 1028,8 hPa 0,0 l/m 0,0 km/h (0 Bft) O-SO 112 -1,2 C -4,3 C 0,0 km/h (0 Bft)
08.01.2015 10:27 5,0 C 64 % 1028,8 hPa 0,0 l/m 0,0 km/h (0 Bft) O-SO 112 -1,2 C -4,3 C 0,0 km/h (0 Bft)
08.01.2015 10:32 5,2 C 61 % 1028,8 hPa 0,0 l/m 0,0 km/h (0 Bft) O-SO 112 -1,7 C -4,3 C 0,0 km/h (0 Bft)
08.01.2015 10:37 5,3 C 61 % 1028,9 hPa 0,0 l/m 0,0 km/h (0 Bft) O-SO 112 -1,6 C -4,3 C 0,0 km/h (0 Bft)
08.01.2015 10:42 5,5 C 60 % 1028,9 hPa 0,0 l/m 0,0 km/h (0 Bft) O-SO 112 -1,6 C -4,3 C 0,0 km/h (0 Bft)
08.01.2015 10:47 5,4 C 60 % 1028,9 hPa 0,0 l/m 0,0 km/h (0 Bft) O-SO 112 -1,7 C -4,3 C 0,0 km/h (0 Bft)
08.01.2015 10:52 5,5 C 59 % 1028,9 hPa 0,0 l/m 0,0 km/h (0 Bft) O-SO 112 -1,9 C -4,3 C 0,0 km/h (0 Bft)
08.01.2015 10:57 5,6 C 59 % 1028,9 hPa 0,0 l/m 0,0 km/h (0 Bft) O-SO 112 -1,8 C -4,3 C 0,0 km/h (0 Bft)
08.01.2015 11:02 5,8 C 59 % 1028,9 hPa 0,0 l/m 0,0 km/h (0 Bft) O-SO 112 -1,6 C -4,3 C 0,0 km/h (0 Bft)
08.01.2015 11:07 6,0 C 58 % 1028,9 hPa 0,0 l/m 0,0 km/h (0 Bft) O-SO 112 -1,6 C -4,3 C 0,0 km/h (0 Bft)
08.01.2015 11:12 6,1 C 58 % 1028,9 hPa 0,0 l/m 0,0 km/h (0 Bft) O-SO 112 -1,5 C -4,3 C 0,0 km/h (0 Bft)
08.01.2015 11:17 6,2 C 58 % 1028,6 hPa 0,0 l/m 0,0 km/h (0 Bft) O-SO 112 -1,4 C -4,3 C 0,0 km/h (0 Bft)
08.01.2015 11:22 6,3 C 57 % 1028,6 hPa 0,0 l/m 0,0 km/h (0 Bft) O-SO 112 -1,6 C -4,3 C 0,0 km/h (0 Bft)
08.01.2015 11:27 6,3 C 57 % 1028,6 hPa 0,0 l/m 0,0 km/h (0 Bft) O-SO 112 -1,6 C -4,3 C 0,0 km/h (0 Bft)
08.01.2015 11:32 6,3 C 57 % 1028,6 hPa 0,0 l/m 0,0 km/h (0 Bft) O-SO 112 -1,6 C -4,3 C 0,0 km/h (0 Bft)
08.01.2015 11:37 6,3 C 57 % 1028,7 hPa 0,0 l/m 0,0 km/h (0 Bft) O-SO 112 -1,6 C -4,3 C 0,0 km/h (0 Bft)
08.01.2015 11:42 6,5 C 56 % 1028,7 hPa 0,0 l/m 0,0 km/h (0 Bft) O-SO 112 -1,6 C -4,3 C 0,0 km/h (0 Bft)
08.01.2015 11:47 6,7 C 56 % 1028,7 hPa 0,0 l/m 0,0 km/h (0 Bft) O-SO 112 -1,4 C -4,3 C 0,0 km/h (0 Bft)
08.01.2015 11:52 6,7 C 55 % 1028,7 hPa 0,0 l/m 0,0 km/h (0 Bft) O-SO 112 -1,7 C -4,3 C 0,0 km/h (0 Bft)
08.01.2015 11:57 6,7 C 55 % 1028,6 hPa 0,0 l/m 0,0 km/h (0 Bft) O-SO 112 -1,7 C -4,3 C 0,0 km/h (0 Bft)
08.01.2015 12:02 6,6 C 55 % 1028,6 hPa 0,0 l/m 0,0 km/h (0 Bft) O-SO 112 -1,8 C -4,3 C 0,0 km/h (0 Bft)
08.01.2015 12:07 6,6 C 55 % 1028,6 hPa 0,0 l/m 0,0 km/h (0 Bft) O-SO 112 -1,8 C -4,3 C 0,0 km/h (0 Bft)
08.01.2015 12:12 6,6 C 55 % 1028,6 hPa 0,0 l/m 0,0 km/h (0 Bft) O-SO 112 -1,8 C -4,3 C 0,0 km/h (0 Bft)
08.01.2015 12:17 6,6 C 56 % 1028,3 hPa 0,0 l/m 0,0 km/h (0 Bft) O-SO 112 -1,5 C -4,3 C 0,0 km/h (0 Bft)
08.01.2015 12:22 6,8 C 55 % 1028,3 hPa 0,0 l/m 0,0 km/h (0 Bft) O-SO 112 -1,6 C -4,3 C 0,0 km/h (0 Bft)
08.01.2015 12:27 6,8 C 55 % 1028,3 hPa 0,0 l/m 0,0 km/h (0 Bft) O-SO 112 -1,6 C -4,3 C 0,0 km/h (0 Bft)
08.01.2015 12:32 6,6 C 55 % 1028,3 hPa 0,0 l/m 0,0 km/h (0 Bft) O-SO 112 -1,8 C -4,3 C 0,0 km/h (0 Bft)
08.01.2015 12:37 6,4 C 56 % 1028,1 hPa 0,0 l/m 0,0 km/h (0 Bft) O-SO 112 -1,7 C -4,3 C 0,0 km/h (0 Bft)
08.01.2015 12:42 6,4 C 55 % 1028,1 hPa 0,0 l/m 0,0 km/h (0 Bft) O-SO 112 -2,0 C -4,3 C 0,0 km/h (0 Bft)
08.01.2015 12:47 6,7 C 56 % 1028,1 hPa 0,0 l/m 0,0 km/h (0 Bft) O-SO 112 -1,4 C -4,3 C 0,0 km/h (0 Bft)
08.01.2015 12:52 6,9 C 55 % 1028,1 hPa 0,0 l/m 0,0 km/h (0 Bft) O-SO 112 -1,5 C -4,3 C 0,0 km/h (0 Bft)
08.01.2015 12:57 6,9 C 55 % 1027,9 hPa 0,0 l/m 0,0 km/h (0 Bft) O-SO 112 -1,5 C -4,3 C 0,0 km/h (0 Bft)
08.01.2015 13:02 6,7 C 54 % 1027,9 hPa 0,0 l/m 0,0 km/h (0 Bft) O-SO 112 -1,9 C -4,3 C 0,0 km/h (0 Bft)
08.01.2015 13:07 6,6 C 55 % 1027,9 hPa 0,0 l/m 0,0 km/h (0 Bft) O-SO 112 -1,8 C -4,3 C 0,0 km/h (0 Bft)
08.01.2015 13:12 6,5 C 55 % 1027,9 hPa 0,0 l/m 0,0 km/h (0 Bft) O-SO 112 -1,9 C -4,3 C 0,0 km/h (0 Bft)
08.01.2015 13:17 6,6 C 55 % 1027,8 hPa 0,0 l/m 0,0 km/h (0 Bft) O-SO 112 -1,8 C -4,3 C 0,0 km/h (0 Bft)
08.01.2015 13:22 6,6 C 55 % 1027,8 hPa 0,0 l/m 0,0 km/h (0 Bft) O-SO 112 -1,8 C -4,3 C 0,0 km/h (0 Bft)
08.01.2015 13:27 6,6 C 54 % 1027,8 hPa 0,0 l/m 0,0 km/h (0 Bft) O-SO 112 -2,0 C -4,3 C 0,0 km/h (0 Bft)
08.01.2015 13:32 6,5 C 55 % 1027,8 hPa 0,0 l/m 0,0 km/h (0 Bft) O-SO 112 -1,9 C -4,3 C 0,0 km/h (0 Bft)
08.01.2015 13:37 6,5 C 55 % 1027,5 hPa 0,0 l/m 0,0 km/h (0 Bft) O-SO 112 -1,9 C -4,3 C 0,0 km/h (0 Bft)
08.01.2015 13:42 6,5 C 55 % 1027,5 hPa 0,0 l/m 0,0 km/h (0 Bft) O-SO 112 -1,9 C -4,3 C 0,0 km/h (0 Bft)
08.01.2015 13:47 6,5 C 55 % 1027,5 hPa 0,0 l/m 0,0 km/h (0 Bft) O-SO 112 -1,9 C -4,3 C 0,0 km/h (0 Bft)
08.01.2015 13:52 6,4 C 55 % 1027,5 hPa 0,0 l/m 0,0 km/h (0 Bft) O-SO 112 -2,0 C -4,3 C 0,0 km/h (0 Bft)
08.01.2015 13:57 6,5 C 55 % 1027,5 hPa 0,0 l/m 0,0 km/h (0 Bft) O-SO 112 -1,9 C -4,3 C 0,0 km/h (0 Bft)
08.01.2015 14:02 6,4 C 55 % 1027,5 hPa 0,0 l/m 0,0 km/h (0 Bft) O-SO 112 -2,0 C -4,3 C 0,0 km/h (0 Bft)
08.01.2015 14:07 6,3 C 55 % 1027,5 hPa 0,0 l/m 0,0 km/h (0 Bft) O-SO 112 -2,1 C -4,3 C 0,0 km/h (0 Bft)
08.01.2015 14:12 6,2 C 56 % 1027,5 hPa 0,0 l/m 0,0 km/h (0 Bft) O-SO 112 -1,9 C -4,3 C 0,0 km/h (0 Bft)
08.01.2015 14:17 6,2 C 56 % 1027,6 hPa 0,0 l/m 0,0 km/h (0 Bft) O-SO 112 -1,9 C -4,3 C 0,0 km/h (0 Bft)
08.01.2015 14:22 6,2 C 56 % 1027,6 hPa 0,0 l/m 0,0 km/h (0 Bft) O-SO 112 -1,9 C -4,3 C 0,0 km/h (0 Bft)
08.01.2015 14:27 6,2 C 56 % 1027,6 hPa 0,0 l/m 0,0 km/h (0 Bft) O-SO 112 -1,9 C -4,3 C 0,0 km/h (0 Bft)
08.01.2015 14:32 6,2 C 56 % 1027,6 hPa 0,0 l/m 0,0 km/h (0 Bft) O-SO 112 -1,9 C -4,3 C 0,0 km/h (0 Bft)
08.01.2015 14:37 6,2 C 56 % 1027,6 hPa 0,0 l/m 0,0 km/h (0 Bft) O-SO 112 -1,9 C -4,3 C 0,0 km/h (0 Bft)
08.01.2015 14:42 6,1 C 56 % 1027,6 hPa 0,0 l/m 0,0 km/h (0 Bft) O-SO 112 -2,0 C -4,3 C 0,0 km/h (0 Bft)
08.01.2015 14:47 6,1 C 56 % 1027,6 hPa 0,0 l/m 0,0 km/h (0 Bft) O-SO 112 -2,0 C -4,3 C 0,0 km/h (0 Bft)
08.01.2015 14:52 6,1 C 57 % 1027,6 hPa 0,0 l/m 0,0 km/h (0 Bft) O-SO 112 -1,8 C -4,3 C 0,0 km/h (0 Bft)
08.01.2015 14:57 6,1 C 56 % 1027,6 hPa 0,0 l/m 0,0 km/h (0 Bft) O-SO 112 -2,0 C -4,3 C 0,0 km/h (0 Bft)
08.01.2015 15:02 6,2 C 56 % 1027,6 hPa 0,0 l/m 0,0 km/h (0 Bft) O-SO 112 -1,9 C -4,3 C 0,0 km/h (0 Bft)
08.01.2015 15:07 6,3 C 56 % 1027,6 hPa 0,0 l/m 0,0 km/h (0 Bft) O-SO 112 -1,8 C -4,3 C 0,0 km/h (0 Bft)
08.01.2015 15:12 6,3 C 56 % 1027,6 hPa 0,0 l/m 0,0 km/h (0 Bft) O-SO 112 -1,8 C -4,3 C 0,0 km/h (0 Bft)
08.01.2015 15:17 6,3 C 56 % 1027,4 hPa 0,0 l/m 0,0 km/h (0 Bft) O-SO 112 -1,8 C -4,3 C 0,0 km/h (0 Bft)
08.01.2015 15:22 6,3 C 55 % 1027,4 hPa 0,0 l/m 0,0 km/h (0 Bft) O-SO 112 -2,1 C -4,3 C 0,0 km/h (0 Bft)
08.01.2015 15:27 6,2 C 55 % 1027,4 hPa 0,0 l/m 0,0 km/h (0 Bft) O-SO 112 -2,2 C -4,3 C 0,0 km/h (0 Bft)
08.01.2015 15:32 6,2 C 55 % 1027,4 hPa 0,0 l/m 0,0 km/h (0 Bft) O-SO 112 -2,2 C -4,3 C 0,0 km/h (0 Bft)
08.01.2015 15:37 6,2 C 55 % 1027,1 hPa 0,0 l/m 0,0 km/h (0 Bft) O-SO 112 -2,2 C -4,3 C 0,0 km/h (0 Bft)
08.01.2015 15:42 6,1 C 56 % 1027,1 hPa 0,0 l/m 0,0 km/h (0 Bft) O-SO 112 -2,0 C -4,3 C 0,0 km/h (0 Bft)
08.01.2015 15:47 6,0 C 55 % 1027,1 hPa 0,0 l/m 0,0 km/h (0 Bft) O-SO 112 -2,3 C -4,3 C 0,0 km/h (0 Bft)
08.01.2015 15:52 5,9 C 57 % 1027,1 hPa 0,0 l/m 0,0 km/h (0 Bft) O-SO 112 -2,0 C -4,3 C 0,0 km/h (0 Bft)
08.01.2015 15:57 6,0 C 56 % 1027,3 hPa 0,0 l/m 0,0 km/h (0 Bft) O-SO 112 -2,1 C -4,3 C 0,0 km/h (0 Bft)
08.01.2015 16:02 5,7 C 57 % 1027,3 hPa 0,0 l/m 0,0 km/h (0 Bft) O-SO 112 -2,1 C -4,3 C 0,0 km/h (0 Bft)
08.01.2015 16:07 5,8 C 57 % 1027,3 hPa 0,0 l/m 0,0 km/h (0 Bft) O-SO 112 -2,0 C -4,3 C 0,0 km/h (0 Bft)
08.01.2015 16:12 5,7 C 57 % 1027,3 hPa 0,0 l/m 0,0 km/h (0 Bft) O-SO 112 -2,1 C -4,3 C 0,0 km/h (0 Bft)
08.01.2015 16:17 5,6 C 57 % 1027,4 hPa 0,0 l/m 0,0 km/h (0 Bft) O-SO 112 -2,2 C -4,3 C 0,0 km/h (0 Bft)
08.01.2015 16:22 5,3 C 57 % 1027,4 hPa 0,0 l/m 0,0 km/h (0 Bft) O-SO 112 -2,5 C -4,3 C 0,0 km/h (0 Bft)
08.01.2015 16:27 5,3 C 57 % 1027,4 hPa 0,0 l/m 0,0 km/h (0 Bft) O-SO 112 -2,5 C -4,3 C 0,0 km/h (0 Bft)
08.01.2015 16:32 5,3 C 57 % 1027,4 hPa 0,0 l/m 0,0 km/h (0 Bft) O-SO 112 -2,5 C -4,3 C 0,0 km/h (0 Bft)
08.01.2015 16:37 5,4 C 57 % 1027,1 hPa 0,0 l/m 0,0 km/h (0 Bft) O-SO 112 -2,4 C -4,3 C 0,0 km/h (0 Bft)
08.01.2015 16:42 5,3 C 56 % 1027,1 hPa 0,0 l/m 0,0 km/h (0 Bft) O-SO 112 -2,8 C -4,3 C 0,0 km/h (0 Bft)
08.01.2015 16:47 5,3 C 57 % 1027,1 hPa 0,0 l/m 0,0 km/h (0 Bft) O-SO 112 -2,5 C -4,3 C 0,0 km/h (0 Bft)
08.01.2015 16:52 5,2 C 57 % 1027,1 hPa 0,0 l/m 0,0 km/h (0 Bft) O-SO 112 -2,6 C -4,3 C 0,0 km/h (0 Bft)
08.01.2015 16:57 5,2 C 57 % 1027,0 hPa 0,0 l/m 0,0 km/h (0 Bft) O-SO 112 -2,6 C -4,3 C 0,0 km/h (0 Bft)
08.01.2015 17:02 5,0 C 57 % 1027,0 hPa 0,0 l/m 0,0 km/h (0 Bft) O-SO 112 -2,8 C -4,3 C 0,0 km/h (0 Bft)
08.01.2015 17:07 5,1 C 57 % 1027,0 hPa 0,0 l/m 0,0 km/h (0 Bft) O-SO 112 -2,7 C -4,3 C 0,0 km/h (0 Bft)
08.01.2015 17:12 5,1 C 57 % 1027,0 hPa 0,0 l/m 0,0 km/h (0 Bft) O-SO 112 -2,7 C -4,3 C 0,0 km/h (0 Bft)
08.01.2015 17:17 5,0 C 57 % 1026,4 hPa 0,0 l/m 0,0 km/h (0 Bft) O-SO 112 -2,8 C -4,3 C 0,0 km/h (0 Bft)
08.01.2015 17:22 5,0 C 58 % 1026,4 hPa 0,0 l/m 0,0 km/h (0 Bft) O-SO 112 -2,6 C -4,3 C 0,0 km/h (0 Bft)
08.01.2015 17:27 5,1 C 57 % 1026,4 hPa 0,0 l/m 0,0 km/h (0 Bft) O-SO 112 -2,7 C -4,3 C 0,0 km/h (0 Bft)
08.01.2015 17:32 5,1 C 57 % 1026,4 hPa 0,0 l/m 0,0 km/h (0 Bft) O-SO 112 -2,7 C -4,3 C 0,0 km/h (0 Bft)
08.01.2015 17:37 5,2 C 57 % 1026,6 hPa 0,0 l/m 0,0 km/h (0 Bft) O-SO 112 -2,6 C -4,3 C 0,0 km/h (0 Bft)
08.01.2015 17:42 5,0 C 57 % 1026,6 hPa 0,0 l/m 0,0 km/h (0 Bft) O-SO 112 -2,8 C -4,3 C 0,0 km/h (0 Bft)
08.01.2015 17:47 5,0 C 57 % 1026,6 hPa 0,0 l/m 0,0 km/h (0 Bft) O-SO 112 -2,8 C -4,3 C 0,0 km/h (0 Bft)
08.01.2015 17:52 4,8 C 57 % 1026,6 hPa 0,0 l/m 0,0 km/h (0 Bft) O-SO 112 -3,0 C -4,3 C 0,0 km/h (0 Bft)
08.01.2015 17:57 4,8 C 58 % 1026,4 hPa 0,0 l/m 0,0 km/h (0 Bft) O-SO 112 -2,7 C -4,3 C 0,0 km/h (0 Bft)
08.01.2015 18:02 4,9 C 58 % 1026,4 hPa 0,0 l/m 0,0 km/h (0 Bft) O-SO 112 -2,7 C -4,3 C 0,0 km/h (0 Bft)
08.01.2015 18:07 4,9 C 58 % 1026,4 hPa 0,0 l/m 0,0 km/h (0 Bft) O-SO 112 -2,7 C -4,3 C 0,0 km/h (0 Bft)
08.01.2015 18:12 4,7 C 58 % 1026,4 hPa 0,0 l/m 0,0 km/h (0 Bft) O-SO 112 -2,8 C -4,3 C 0,0 km/h (0 Bft)
08.01.2015 18:17 4,8 C 58 % 1026,4 hPa 0,0 l/m 0,0 km/h (0 Bft) O-SO 112 -2,7 C -4,3 C 0,0 km/h (0 Bft)
08.01.2015 18:22 4,9 C 57 % 1026,4 hPa 0,0 l/m 0,0 km/h (0 Bft) O-SO 112 -2,9 C -4,3 C 0,0 km/h (0 Bft)
08.01.2015 18:27 4,9 C 57 % 1026,4 hPa 0,0 l/m 0,0 km/h (0 Bft) O-SO 112 -2,9 C -4,3 C 0,0 km/h (0 Bft)
08.01.2015 18:32 4,9 C 57 % 1026,4 hPa 0,0 l/m 0,0 km/h (0 Bft) O-SO 112 -2,9 C -4,3 C 0,0 km/h (0 Bft)
08.01.2015 18:37 4,9 C 56 % 1026,0 hPa 0,0 l/m 0,0 km/h (0 Bft) O-SO 112 -3,1 C -4,3 C 0,0 km/h (0 Bft)
08.01.2015 18:42 5,2 C 56 % 1026,0 hPa 0,0 l/m 0,0 km/h (0 Bft) O-SO 112 -2,8 C -4,3 C 0,0 km/h (0 Bft)
08.01.2015 18:47 5,1 C 56 % 1026,0 hPa 0,0 l/m 0,0 km/h (0 Bft) O-SO 112 -2,9 C -4,3 C 0,0 km/h (0 Bft)
08.01.2015 18:52 5,0 C 57 % 1026,0 hPa 0,0 l/m 0,0 km/h (0 Bft) O-SO 112 -2,8 C -4,3 C 0,0 km/h (0 Bft)
08.01.2015 18:57 5,0 C 57 % 1026,2 hPa 0,0 l/m 0,0 km/h (0 Bft) O-SO 112 -2,8 C -4,3 C 0,0 km/h (0 Bft)
08.01.2015 19:02 5,0 C 58 % 1026,2 hPa 0,0 l/m 0,0 km/h (0 Bft) O-SO 112 -2,6 C -4,3 C 0,0 km/h (0 Bft)
08.01.2015 19:07 5,0 C 58 % 1026,2 hPa 0,0 l/m 0,0 km/h (0 Bft) O-SO 112 -2,6 C -4,3 C 0,0 km/h (0 Bft)
08.01.2015 19:12 5,1 C 58 % 1026,2 hPa 0,0 l/m 0,0 km/h (0 Bft) O-SO 112 -2,5 C -4,3 C 0,0 km/h (0 Bft)
08.01.2015 19:17 5,1 C 59 % 1026,4 hPa 0,0 l/m 0,0 km/h (0 Bft) O-SO 112 -2,2 C -4,3 C 0,0 km/h (0 Bft)
08.01.2015 19:22 5,3 C 58 % 1026,4 hPa 0,0 l/m 0,0 km/h (0 Bft) O-SO 112 -2,3 C -4,3 C 0,0 km/h (0 Bft)
08.01.2015 19:27 5,4 C 58 % 1026,4 hPa 0,0 l/m 0,0 km/h (0 Bft) O-SO 112 -2,2 C -4,3 C 0,0 km/h (0 Bft)
08.01.2015 19:32 5,4 C 58 % 1026,4 hPa 0,0 l/m 0,0 km/h (0 Bft) O-SO 112 -2,2 C -4,3 C 0,0 km/h (0 Bft)
08.01.2015 19:37 5,4 C 58 % 1026,4 hPa 0,0 l/m 0,0 km/h (0 Bft) O-SO 112 -2,2 C -4,3 C 0,0 km/h (0 Bft)
08.01.2015 19:42 5,4 C 58 % 1026,4 hPa 0,0 l/m 0,0 km/h (0 Bft) O-SO 112 -2,2 C -4,3 C 0,0 km/h (0 Bft)
08.01.2015 19:45 5,4 C 58 % 1026,4 hPa 0,0 l/m 0,0 km/h (0 Bft) O-SO 112 -2,2 C -4,3 C 0,0 km/h (0 Bft)
08.01.2015 19:50 5,5 C 58 % 1026,4 hPa 0,0 l/m 7,6 km/h (2 Bft) W-SW 247 -2,1 C 3,6 C 10,9 km/h (2 Bft)
08.01.2015 19:55 5,8 C 57 % 1026,4 hPa 0,0 l/m 7,6 km/h (2 Bft) W-SW 247 -2,0 C 3,6 C 10,9 km/h (2 Bft)
08.01.2015 20:00 5,8 C 56 % 1026,7 hPa 0,0 l/m 7,6 km/h (2 Bft) W-SW 247 -2,3 C 3,6 C 10,9 km/h (2 Bft)
08.01.2015 20:05 6,1 C 53 % 1026,7 hPa 0,0 l/m 0,0 km/h (0 Bft) W-SW 247 -2,7 C 4,7 C 0,0 km/h (0 Bft)
08.01.2015 20:10 6,4 C 50 % 1026,7 hPa 0,0 l/m 0,0 km/h (0 Bft) W-SW 247 -3,2 C 4,7 C 0,0 km/h (0 Bft)
08.01.2015 20:15 6,5 C 50 % 1026,7 hPa 0,0 l/m 0,0 km/h (0 Bft) W-SW 247 -3,2 C 4,7 C 0,0 km/h (0 Bft)
08.01.2015 20:20 6,7 C 49 % 1026,9 hPa 0,0 l/m 0,0 km/h (0 Bft) W-SW 247 -3,2 C 4,7 C 0,0 km/h (0 Bft)
08.01.2015 20:25 6,7 C 50 % 1026,9 hPa 0,0 l/m 0,0 km/h (0 Bft) W-SW 247 -3,0 C 4,7 C 0,0 km/h (0 Bft)
08.01.2015 20:30 6,5 C 50 % 1026,9 hPa 0,0 l/m 0,0 km/h (0 Bft) W-SW 247 -3,2 C 4,7 C 0,0 km/h (0 Bft)
08.01.2015 20:35 6,4 C 51 % 1026,9 hPa 0,0 l/m 0,0 km/h (0 Bft) W-SW 247 -3,0 C 4,7 C 0,0 km/h (0 Bft)
08.01.2015 20:40 6,5 C 52 % 1027,4 hPa 0,0 l/m 0,0 km/h (0 Bft) W-SW 247 -2,6 C 4,7 C 0,0 km/h (0 Bft)
08.01.2015 20:45 6,3 C 52 % 1027,4 hPa 0,0 l/m 0,0 km/h (0 Bft) W-SW 247 -2,8 C 4,7 C 0,0 km/h (0 Bft)
08.01.2015 20:50 6,3 C 53 % 1027,4 hPa 0,0 l/m 0,0 km/h (0 Bft) W-SW 247 -2,6 C 4,7 C 0,0 km/h (0 Bft)
08.01.2015 20:55 6,3 C 53 % 1027,4 hPa 0,0 l/m 0,0 km/h (0 Bft) W-SW 247 -2,6 C 4,7 C 0,0 km/h (0 Bft)
08.01.2015 21:00 6,6 C 53 % 1027,4 hPa 0,0 l/m 0,0 km/h (0 Bft) W-SW 247 -2,3 C 4,7 C 0,0 km/h (0 Bft)
08.01.2015 21:02 6,5 C 55 % 1027,4 hPa 0,0 l/m 0,0 km/h (0 Bft) W-SW 247 -1,9 C 0,0 C 0,0 km/h (0 Bft)
08.01.2015 21:07 6,3 C 57 % 1027,4 hPa 0,0 l/m 0,0 km/h (0 Bft) W-SW 247 -1,6 C 0,0 C 0,0 km/h (0 Bft)
08.01.2015 21:12 6,4 C 57 % 1027,4 hPa 0,0 l/m 0,0 km/h (0 Bft) W-SW 247 -1,5 C 0,0 C 0,0 km/h (0 Bft)
08.01.2015 21:17 6,2 C 58 % 1027,6 hPa 0,0 l/m 0,0 km/h (0 Bft) W-SW 247 -1,4 C 0,0 C 0,0 km/h (0 Bft)
08.01.2015 21:22 6,4 C 58 % 1027,6 hPa 0,0 l/m 0,0 km/h (0 Bft) W-SW 247 -1,2 C 0,0 C 0,0 km/h (0 Bft)
08.01.2015 21:27 6,1 C 59 % 1027,6 hPa 0,0 l/m 0,0 km/h (0 Bft) W-SW 247 -1,3 C 0,0 C 0,0 km/h (0 Bft)
08.01.2015 21:32 6,2 C 60 % 1027,6 hPa 0,0 l/m 0,0 km/h (0 Bft) W-SW 247 -1,0 C 0,0 C 0,0 km/h (0 Bft)
08.01.2015 21:37 6,1 C 60 % 1027,4 hPa 0,0 l/m 0,0 km/h (0 Bft) W-SW 247 -1,1 C 0,0 C 0,0 km/h (0 Bft)
08.01.2015 21:42 6,1 C 60 % 1027,4 hPa 0,0 l/m 0,0 km/h (0 Bft) W-SW 247 -1,1 C 0,0 C 0,0 km/h (0 Bft)
08.01.2015 21:47 6,1 C 60 % 1027,4 hPa 0,0 l/m 0,0 km/h (0 Bft) W-SW 247 -1,1 C 0,0 C 0,0 km/h (0 Bft)
08.01.2015 21:52 6,2 C 61 % 1027,4 hPa 0,0 l/m 0,0 km/h (0 Bft) W-SW 247 -0,7 C 0,0 C 0,0 km/h (0 Bft)
08.01.2015 21:57 6,2 C 61 % 1028,3 hPa 0,0 l/m 0,0 km/h (0 Bft) W-SW 247 -0,7 C 0,0 C 0,0 km/h (0 Bft)
08.01.2015 22:02 6,1 C 62 % 1028,3 hPa 0,0 l/m 0,0 km/h (0 Bft) W-SW 247 -0,6 C 0,0 C 0,0 km/h (0 Bft)
08.01.2015 22:07 6,2 C 62 % 1028,3 hPa 0,0 l/m 0,0 km/h (0 Bft) W-SW 247 -0,5 C 0,0 C 0,0 km/h (0 Bft)
08.01.2015 22:12 6,2 C 63 % 1028,3 hPa 0,0 l/m 0,0 km/h (0 Bft) W-SW 247 -0,3 C 0,0 C 0,0 km/h (0 Bft)
08.01.2015 22:17 6,1 C 63 % 1028,1 hPa 0,0 l/m 0,0 km/h (0 Bft) W-SW 247 -0,4 C 0,0 C 0,0 km/h (0 Bft)
08.01.2015 22:22 6,1 C 64 % 1028,1 hPa 0,0 l/m 0,0 km/h (0 Bft) W-SW 247 -0,2 C 0,0 C 0,0 km/h (0 Bft)
08.01.2015 22:27 5,9 C 67 % 1028,1 hPa 0,0 l/m 0,0 km/h (0 Bft) W-SW 247 0,3 C 0,0 C 0,0 km/h (0 Bft)
08.01.2015 22:32 5,7 C 68 % 1028,1 hPa 0,0 l/m 0,0 km/h (0 Bft) W-SW 247 0,3 C 0,0 C 0,0 km/h (0 Bft)
08.01.2015 22:37 5,8 C 68 % 1028,7 hPa 0,0 l/m 0,0 km/h (0 Bft) W-SW 247 0,4 C 0,0 C 0,0 km/h (0 Bft)
08.01.2015 22:42 5,8 C 67 % 1028,7 hPa 0,0 l/m 0,0 km/h (0 Bft) W-SW 247 0,2 C 0,0 C 0,0 km/h (0 Bft)
08.01.2015 22:47 5,6 C 67 % 1028,7 hPa 0,0 l/m 0,0 km/h (0 Bft) W-SW 247 -0,0 C 0,0 C 0,0 km/h (0 Bft)
08.01.2015 22:52 5,8 C 68 % 1028,7 hPa 0,0 l/m 0,0 km/h (0 Bft) W-SW 247 0,4 C 0,0 C 0,0 km/h (0 Bft)
08.01.2015 22:57 5,7 C 68 % 1029,1 hPa 0,0 l/m 0,0 km/h (0 Bft) W-SW 247 0,3 C 0,0 C 0,0 km/h (0 Bft)
08.01.2015 23:02 5,7 C 68 % 1029,1 hPa 0,0 l/m 0,0 km/h (0 Bft) W-SW 247 0,3 C 0,0 C 0,0 km/h (0 Bft)
08.01.2015 23:07 5,9 C 67 % 1029,1 hPa 0,0 l/m 0,0 km/h (0 Bft) W-SW 247 0,3 C 0,0 C 0,0 km/h (0 Bft)
08.01.2015 23:12 6,0 C 66 % 1029,1 hPa 0,0 l/m 0,0 km/h (0 Bft) W-SW 247 0,1 C 0,0 C 0,0 km/h (0 Bft)
08.01.2015 23:17 6,0 C 66 % 1029,6 hPa 0,0 l/m 0,0 km/h (0 Bft) W-SW 247 0,1 C 0,0 C 0,0 km/h (0 Bft)
08.01.2015 23:22 5,9 C 67 % 1029,6 hPa 0,0 l/m 0,0 km/h (0 Bft) W-SW 247 0,3 C 0,0 C 0,0 km/h (0 Bft)
08.01.2015 23:27 5,9 C 66 % 1029,6 hPa 0,0 l/m 0,0 km/h (0 Bft) W-SW 247 0,0 C 0,0 C 0,0 km/h (0 Bft)
08.01.2015 23:32 6,1 C 65 % 1029,6 hPa 0,0 l/m 0,0 km/h (0 Bft) W-SW 247 0,0 C 0,0 C 0,0 km/h (0 Bft)
08.01.2015 23:37 6,1 C 65 % 1030,1 hPa 0,0 l/m 0,0 km/h (0 Bft) W-SW 247 0,0 C 0,0 C 0,0 km/h (0 Bft)
08.01.2015 23:42 6,1 C 65 % 1030,1 hPa 0,0 l/m 0,0 km/h (0 Bft) W-SW 247 0,0 C 0,0 C 0,0 km/h (0 Bft)
08.01.2015 23:47 5,9 C 66 % 1030,1 hPa 0,0 l/m 0,0 km/h (0 Bft) W-SW 247 0,0 C 0,0 C 0,0 km/h (0 Bft)
08.01.2015 23:52 5,8 C 67 % 1030,1 hPa 0,0 l/m 0,0 km/h (0 Bft) W-SW 247 0,2 C 0,0 C 0,0 km/h (0 Bft)
08.01.2015 23:57 5,9 C 67 % 1030,4 hPa 0,0 l/m 0,0 km/h (0 Bft) W-SW 247 0,3 C 0,0 C 0,0 km/h (0 Bft)
_ Min-Zeit 02:12 20:20 18:52 - 23:57 - - 02:12 19:45 23:57
Minimum _ -4,7 C 49 % 1026,0 hPa - 0,0 km/h (0 Bft) - - -6,4 C -4,3 C 0,0 km/h (0 Bft)
_ Max-Zeit 12:57 09:17 23:57 23:57 20:00 - - 09:27 21:00 20:00
Maximum _ 6,9 C 91 % 1030,4 hPa 0,0 l/m 7,6 km/h
W-SW (2 Bft)
- - 1,1 C 4,7 C 10,9 km/h
W-SW (2 Bft)
Durchschnitt _ 2,1 C 71 % 1027,9 hPa #0,0 l/m 0,1 km/h (0 Bft) W-SW - -3,1 C -2,4 C 0,1 km/h (0 Bft)